• In Hungary
  • List of Countries
  • For 7 days
  • Water Temperature
  • Satellite Maps
  • Weather Map
  • News
  • Weather Widgets
  • user-avatar
    Login

    Hourly Weather Mankulam

    Today, 22 May, Tuesday

    Time Temperature Precipitation Wind Pressure Humidity
    00:00 +28°C° 0.7 mm 4 mps 751 mmHg 88%
    01:00 +28°C° 0.7 mm 4 mps 751 mmHg 90%
    02:00 +27°C° 0.7 mm 4 mps 751 mmHg 91%
    03:00 +27°C° 0.8 mm 4 mps 751 mmHg 91%
    04:00 +27°C° 0.8 mm 4 mps 751 mmHg 90%
    05:00 +27°C° 0.8 mm 4 mps 751 mmHg 90%
    06:00 +28°C° 0.5 mm 4 mps 751 mmHg 88%
    07:00 +29°C° 0.5 mm 4 mps 752 mmHg 87%
    08:00 +30°C° 0.5 mm 4 mps 752 mmHg 85%
    09:00 +30°C° 0.9 mm 4 mps 752 mmHg 85%
    10:00 +30°C° 0.9 mm 4 mps 752 mmHg 84%
    11:00 +30°C° 0.9 mm 4 mps 752 mmHg 83%
    12:00 +30°C° 0.2 mm 4 mps 751 mmHg 83%
    13:00 +30°C° 0.2 mm 4 mps 751 mmHg 82%
    14:00 +30°C° 0.2 mm 4 mps 750 mmHg 82%
    15:00 +30°C° 0 mm 4 mps 750 mmHg 82%
    16:00 +30°C° 0 mm 4 mps 750 mmHg 81%
    17:00 +30°C° 0 mm 4 mps 750 mmHg 81%
    18:00 +29°C° 0 mm 4 mps 750 mmHg 83%
    19:00 +29°C° 0 mm 4 mps 751 mmHg 86%
    20:00 +28°C° 0 mm 4 mps 751 mmHg 89%
    21:00 +28°C° 0 mm 4 mps 751 mmHg 89%
    22:00 +28°C° 0 mm 4 mps 751 mmHg 89%
    23:00 +28°C° 0 mm 4 mps 751 mmHg 89%

    Tomorrow, 23 May, Wednesday

    Time Temperature Precipitation Wind Pressure Humidity
    00:00 +28°C° 0.8 mm 4 mps 751 mmHg 90%
    01:00 +28°C° 0.8 mm 4 mps 751 mmHg 91%
    02:00 +27°C° 0.8 mm 4 mps 750 mmHg 93%
    03:00 +27°C° 0.9 mm 4 mps 750 mmHg 92%
    04:00 +28°C° 0.9 mm 4 mps 750 mmHg 92%
    05:00 +28°C° 0.9 mm 4 mps 750 mmHg 92%
    06:00 +28°C° 0.7 mm 4 mps 751 mmHg 90%
    07:00 +29°C° 0.7 mm 4 mps 751 mmHg 87%
    08:00 +30°C° 0.7 mm 4 mps 752 mmHg 85%
    09:00 +32°C° 1.1 mm 4 mps 751 mmHg 83%
    10:00 +32°C° 1.1 mm 4 mps 751 mmHg 80%
    11:00 +33°C° 1.1 mm 4 mps 751 mmHg 77%
    12:00 +33°C° 0.3 mm 4 mps 751 mmHg 75%
    13:00 +34°C° 0.3 mm 3 mps 750 mmHg 72%
    14:00 +34°C° 0.3 mm 3 mps 749 mmHg 70%
    15:00 +33°C° 0.1 mm 4 mps 749 mmHg 73%
    16:00 +33°C° 0.1 mm 4 mps 749 mmHg 76%
    17:00 +32°C° 0.1 mm 4 mps 749 mmHg 80%
    18:00 +30°C° 0.1 mm 5 mps 749 mmHg 81%
    19:00 +30°C° 0.1 mm 5 mps 750 mmHg 83%
    20:00 +29°C° 0.1 mm 5 mps 750 mmHg 85%
    21:00 +29°C° 0.1 mm 5 mps 750 mmHg 86%
    22:00 +29°C° 0.1 mm 5 mps 750 mmHg 87%
    23:00 +29°C° 0.1 mm 5 mps 750 mmHg 88%

    Day after tomorrow, 24 May, Thursday

    Time Temperature Precipitation Wind Pressure Humidity
    00:00 +29°C° 1.2 mm 6 mps 750 mmHg 89%
    01:00 +28°C° 1.2 mm 6 mps 750 mmHg 90%
    02:00 +28°C° 1.2 mm 6 mps 749 mmHg 91%
    03:00 +28°C° 0.9 mm 6 mps 749 mmHg 90%
    04:00 +28°C° 0.9 mm 6 mps 749 mmHg 90%
    05:00 +28°C° 0.9 mm 6 mps 749 mmHg 90%
    06:00 +29°C° 0.2 mm 6 mps 750 mmHg 88%
    07:00 +29°C° 0.2 mm 6 mps 750 mmHg 87%
    08:00 +30°C° 0.2 mm 6 mps 751 mmHg 86%
    09:00 +32°C° 1.6 mm 6 mps 751 mmHg 80%
    10:00 +33°C° 1.6 mm 6 mps 751 mmHg 75%
    11:00 +34°C° 1.6 mm 6 mps 751 mmHg 69%
    12:00 +33°C° 1 mm 5 mps 750 mmHg 73%
    13:00 +32°C° 1 mm 5 mps 750 mmHg 78%
    14:00 +32°C° 1 mm 4 mps 749 mmHg 82%
    15:00 +30°C° 0.3 mm 4 mps 749 mmHg 85%
    16:00 +29°C° 0.3 mm 4 mps 749 mmHg 87%
    17:00 +29°C° 0.3 mm 4 mps 749 mmHg 89%
    18:00 +29°C° 0.1 mm 5 mps 750 mmHg 89%
    19:00 +28°C° 0.1 mm 5 mps 750 mmHg 90%
    20:00 +28°C° 0.1 mm 5 mps 750 mmHg 90%
    21:00 +28°C° 0.2 mm 5 mps 750 mmHg 89%
    22:00 +28°C° 0.2 mm 5 mps 750 mmHg 88%
    23:00 +28°C° 0.2 mm 6 mps 750 mmHg 88%

    25 May, Friday

    Time Temperature Precipitation Wind Pressure Humidity
    00:00 +28°C° 1 mm 5 mps 750 mmHg 88%
    01:00 +28°C° 1 mm 5 mps 749 mmHg 88%
    02:00 +28°C° 1 mm 5 mps 749 mmHg 89%
    03:00 +28°C° 2.3 mm 5 mps 749 mmHg 89%
    04:00 +28°C° 2.3 mm 5 mps 749 mmHg 89%
    05:00 +28°C° 2.3 mm 5 mps 749 mmHg 89%
    06:00 +28°C° 0.5 mm 5 mps 750 mmHg 87%
    07:00 +29°C° 0.5 mm 5 mps 750 mmHg 86%
    08:00 +29°C° 0.5 mm 5 mps 751 mmHg 84%
    09:00 +29°C° 0 mm 6 mps 751 mmHg 82%
    10:00 +30°C° 0 mm 6 mps 751 mmHg 79%
    11:00 +30°C° 0 mm 6 mps 751 mmHg 76%
    12:00 +32°C° 0.5 mm 6 mps 750 mmHg 75%
    13:00 +32°C° 0.5 mm 6 mps 749 mmHg 74%
    14:00 +33°C° 0.5 mm 6 mps 749 mmHg 73%
    15:00 +32°C° 0.6 mm 6 mps 749 mmHg 77%
    16:00 +30°C° 0.6 mm 6 mps 749 mmHg 81%
    17:00 +29°C° 0.6 mm 5 mps 749 mmHg 85%
    18:00 +29°C° 0.6 mm 6 mps 749 mmHg 86%
    19:00 +28°C° 0.6 mm 6 mps 750 mmHg 88%
    20:00 +28°C° 0.6 mm 6 mps 750 mmHg 90%
    21:00 +28°C° 0.2 mm 6 mps 750 mmHg 89%
    22:00 +28°C° 0.2 mm 6 mps 750 mmHg 88%
    23:00 +28°C° 0.2 mm 6 mps 750 mmHg 88%

    26 May, Saturday

    Time Temperature Precipitation Wind Pressure Humidity
    00:00 +28°C° 0.7 mm 6 mps 750 mmHg 88%
    01:00 +28°C° 0.7 mm 6 mps 749 mmHg 89%
    02:00 +28°C° 0.7 mm 6 mps 749 mmHg 89%
    03:00 +28°C° 0.1 mm 6 mps 749 mmHg 89%
    04:00 +28°C° 0.1 mm 5 mps 749 mmHg 89%
    05:00 +28°C° 0.1 mm 5 mps 749 mmHg 89%
    06:00 +29°C° 0 mm 5 mps 750 mmHg 86%
    07:00 +30°C° 0 mm 6 mps 750 mmHg 82%
    08:00 +30°C° 0 mm 6 mps 751 mmHg 79%
    09:00 +33°C° 0 mm 6 mps 751 mmHg 75%
    10:00 +34°C° 0 mm 6 mps 750 mmHg 70%
    11:00 +35°C° 0 mm 6 mps 750 mmHg 65%
    12:00 +34°C° 0.1 mm 6 mps 750 mmHg 67%
    13:00 +34°C° 0.1 mm 7 mps 749 mmHg 68%
    14:00 +34°C° 0.1 mm 7 mps 748 mmHg 69%
    15:00 +33°C° 0 mm 7 mps 748 mmHg 72%
    16:00 +32°C° 0 mm 6 mps 749 mmHg 74%
    17:00 +32°C° 0 mm 6 mps 749 mmHg 77%
    18:00 +30°C° 0 mm 6 mps 749 mmHg 79%
    19:00 +30°C° 0 mm 6 mps 750 mmHg 81%
    20:00 +29°C° 0 mm 6 mps 750 mmHg 82%
    21:00 +29°C° 0 mm 6 mps 751 mmHg 83%
    22:00 +29°C° 0 mm 6 mps 751 mmHg 84%
    23:00 +29°C° 0 mm 7 mps 751 mmHg 84%

    27 May, Sunday

    Time Temperature Precipitation Wind Pressure Humidity
    00:00 +29°C° 0 mm 7 mps 750 mmHg 85%
    01:00 +29°C° 0 mm 7 mps 749 mmHg 85%
    02:00 +29°C° 0 mm 7 mps 749 mmHg 85%
    03:00 +29°C° 0 mm 7 mps 749 mmHg 85%
    04:00 +29°C° 0 mm 7 mps 749 mmHg 85%
    05:00 +29°C° 0 mm 7 mps 749 mmHg 85%
    06:00 +29°C° 0 mm 8 mps 750 mmHg 82%
    07:00 +31°C° 0 mm 8 mps 750 mmHg 79%
    08:00 +32°C° 0 mm 8 mps 751 mmHg 77%
    09:00 +32°C° 0 mm 9 mps 751 mmHg 74%
    10:00 +33°C° 0 mm 9 mps 751 mmHg 71%
    11:00 +34°C° 0 mm 9 mps 750 mmHg 68%
    12:00 +33°C° 0 mm 9 mps 750 mmHg 68%
    13:00 +33°C° 0 mm 9 mps 749 mmHg 69%
    14:00 +33°C° 0 mm 9 mps 749 mmHg 69%
    15:00 +33°C° 0 mm 9 mps 749 mmHg 71%
    16:00 +32°C° 0 mm 9 mps 749 mmHg 74%
    17:00 +31°C° 0 mm 9 mps 749 mmHg 76%
    18:00 +31°C° 0 mm 8 mps 749 mmHg 77%
    19:00 +31°C° 0 mm 8 mps 750 mmHg 78%
    20:00 +31°C° 0 mm 8 mps 751 mmHg 79%
    21:00 +29°C° 0 mm 8 mps 751 mmHg 80%
    22:00 +29°C° 0 mm 8 mps 751 mmHg 81%
    23:00 +29°C° 0 mm 8 mps 751 mmHg 81%
    Show more